User: anonymous   Login
Location: Unspecified
(0.0000°N, 0.0000°E)
Time: 01:44:51
(UTC+02:00)
Language:

Cosmos 1782 Rocket - Orbit

View from above orbital plane
View from above orbital plane
View from above satellite
View from above satellite

Ground track
Ground track

The orbit data is extracted from the following two-line orbital elements,

1 16987U 86074B   16152.90593991  .00000140  00000-0  14261-4 0  9999
2 16987  82.5154 307.4704 0019773  78.0243  35.1003 14.82899356601963
Epoch (UTC): 31 May 2016 21:44:33
Eccentricity: 0.0019773
inclination: 82.5154°
perigee height: 606 km
apogee height: 634 km
right ascension of ascending node: 307.4704°
argument of perigee: 78.0243°
revolutions per day: 14.82899356
mean anomaly at epoch: 35.1003°
orbit number at epoch: 60196

The dashed part of the orbit path shows where the satellite is in the earth's shadow,  

DLR